#timestamp,LO_Frequency,Hit,StdDev 
1599987615.6,286047000.7,N
1599987635.4,286047000.2,N
1599987655.2,286047001.9,N
1599987675.1,286047000.8,N
1599987676.0,286047000.8,N
1599987695.8,286047001.0,N
1599987715.7,286046997.3,N
1599987735.5,286046998.1,N
1599987755.3,286047000.3,N
1599987775.2,286047001.9,N
1599987795.0,286047003.6,N
1599987795.9,286047003.6,N
1599987815.7,286047002.9,N
1599987835.6,286047002.0,N
1599987855.4,286046999.7,N
1599987875.3,286046999.7,N
1599987895.1,286047000.3,N
1599987896.0,286047000.3,N
1599987915.8,286046999.8,N
1599987935.7,286046999.0,N
1599987955.5,286046997.5,N
1599987975.3,286046996.1,N
1599987995.2,286046995.2,N
1599988015.0,286046994.9,N
1599988015.9,286046994.9,N
1599988035.8,286046995.5,N
1599988055.6,286046997.9,N
1599988075.4,286046999.6,N
1599988095.3,286047003.7,N
1599988115.1,286047003.9,N
1599988135.9,286047001.3,N
1599988155.7,286047001.4,N
1599988175.5,286047000.6,N
1599988195.4,286047002.4,N
1599988215.2,286047001.2,N
1599988235.0,286046999.9,N
1599988235.9,286046999.9,N
1599988255.8,286047002.2,N
1599988275.6,286047002.4,N
1599988295.5,286046998.7,N
1599988315.3,286046999.3,N
1599988335.1,286046996.1,N
1599988355.9,286046995.2,N
1599988375.7,286046995.3,N
1599988395.5,286046996.2,N
1599988415.4,286046995.5,N
1599988435.2,286046997.5,N
1599988455.1,286046997.6,N
1599988456.0,286046997.6,N
1599988475.8,286046995.4,N
1599988495.6,286046998.4,N
1599988515.5,286047001.8,N
1599988535.3,286047001.0,N
1599988555.2,286047000.8,N
1599988575.9,286046998.2,N
1599988595.7,286046999.7,N
1599988615.6,286047000.9,N
1599988635.4,286047011.9,Y
1599988655.2,286047000.1,P
1599988675.1,286047002.6,P
1599988676.0,286047002.6,N
1599988695.8,286046999.8,N
1599988715.7,286046999.6,N
1599988735.5,286046996.8,N
1599988755.3,286046995.3,N
1599988775.2,286046995.1,N
1599988795.0,286046995.3,N
1599988795.9,286046995.3,N
1599988815.8,286046997.8,N
1599988835.6,286046997.0,N
1599988855.4,286046995.1,N
1599988875.3,286046997.9,N
1599988895.1,286046998.0,N
1599988915.9,286046996.7,N
1599988935.7,286046999.2,N
1599988955.5,286046995.6,N
1599988975.4,286046994.6,N
1599988995.2,286046993.7,N
1599989015.0,286046994.5,N
1599989015.9,286046994.5,N
1599989035.8,286046995.2,N
1599989055.6,286046999.6,N
1599989075.5,286046999.2,N
1599989095.3,286046999.5,N
1599989115.1,286046997.1,N
1599989135.9,286046993.4,N
1599989155.7,286046994.2,N
1599989175.6,286046992.3,Y
1599989195.4,286046996.2,P
1599989215.2,286046993.3,P
1599989235.1,286046993.5,P
1599989236.0,286046993.5,Y
1599989255.8,286047000.3,P
1599989275.7,286047000.3,N
1599989295.5,286047002.2,N
1599989315.3,286046998.1,N
1599989335.2,286046998.8,N
1599989355.0,286046998.7,N
1599989355.9,286046998.7,N
1599989375.7,286046999.2,N
1599989395.6,286046999.2,N
1599989415.4,286047002.8,N
1599989435.3,286047002.6,N
1599989455.1,286047001.5,N
1599989456.0,286047001.5,N
1599989475.8,286047004.3,N
1599989495.7,286047006.0,N
1599989515.5,286047003.1,N
1599989535.3,286047004.3,N
1599989555.2,286047002.3,N
1599989575.0,286047002.4,N
1599989575.9,286047002.4,N
1599989595.8,286047003.6,N
1599989615.6,286047002.9,N
1599989635.4,286047001.8,N
1599989655.3,286047002.6,N
1599989675.1,286047004.0,N
1599989695.9,286047005.6,N
1599989715.7,286047004.6,N
1599989735.5,286047006.8,N
1599989755.4,286047006.0,N
1599989775.2,286047005.2,N
1599989795.0,286047001.6,N
1599989796.0,286047001.6,N
1599989815.8,286047001.5,N
1599989835.6,286047001.9,N
1599989855.5,286047002.6,N
1599989875.3,286047002.8,N
1599989895.1,286047002.2,N
1599989915.9,286047002.5,N
1599989935.7,286047002.3,N
1599989955.6,286047004.0,N
1599989975.4,286047003.5,N
1599989995.2,286047003.4,N
1599990015.1,286047005.5,Y
1599990016.0,286047005.5,P
1599990035.8,286046999.7,N
1599990055.7,286047000.9,N
1599990075.5,286046996.6,N
1599990095.3,286046999.4,N
1599990115.2,286047000.1,N
1599990135.0,286047000.0,N
1599990135.9,286047000.0,N
1599990155.7,286046998.6,N
1599990175.6,286046999.2,N
1599990195.4,286046999.1,N
1599990215.3,286046998.8,N
1599990235.1,286046996.6,N
1599990236.0,286046996.6,N
1599990255.8,286046999.5,N
1599990275.7,286046999.3,N
1599990295.5,286046999.4,N
1599990315.4,286047000.7,N
1599990335.2,286046999.0,N
1599990355.0,286046997.4,N
1599990355.9,286046997.4,N
1599990375.8,286046999.1,N
1599990395.6,286046995.1,N
1599990415.4,286046996.7,N
1599990435.3,286046998.7,N
1599990455.1,286046997.6,N
1599990475.9,286046996.1,N
1599990495.7,286046996.5,N
1599990515.5,286047001.0,N
1599990535.4,286047000.0,N
1599990555.2,286046996.5,N
1599990575.0,286046997.7,N
1599990576.0,286046997.7,N
1599990595.8,286046999.0,N
1599990615.6,286046998.3,N
1599990635.5,286047001.2,N
1599990655.3,286047000.5,N
1599990675.1,286047002.8,N
1599990695.9,286047000.0,N
1599990715.7,286047001.3,N
1599990735.6,286047001.3,N
1599990755.4,286047000.5,N
1599990775.2,286046999.8,N
1599990795.1,286047002.7,N
1599990796.0,286047002.7,N
1599990815.8,286047001.2,N
1599990835.6,286046999.4,N
1599990855.5,286046999.2,N
1599990875.3,286046996.6,N
1599990895.2,286046999.1,N
1599990915.9,286046998.2,N
1599990935.7,286046999.3,N
1599990955.6,286046999.1,N
1599990975.4,286046999.2,N
1599990995.3,286046994.1,Y
1599991015.1,286046995.4,P
1599991016.0,286046995.4,N
1599991035.8,286046995.4,N
1599991055.7,286046997.5,N
1599991075.5,286046996.5,N
1599991095.3,286046998.9,N
1599991115.2,286046996.6,N
1599991135.0,286046998.4,N
1599991135.9,286046998.4,N
1599991155.8,286046999.5,N
1599991175.6,286046997.8,N
1599991195.4,286046998.8,N
